1st Responders/1st Detectors/Storm Spotters Weather Summary for Bourbon County, KY

Forecast Maps


Reg. NEXRAD Animation


National Fire Danger: Day 1 & 2 Map

Current NWS Watch/Warnings

SPC Convective Day 1 Outlook


Day 2 Outlook

(Click images to enlarge|Page will refresh every 5 minutes)
UK Ag. Weather Center Desktop Severe Weather Service[HERE]
Bourbon County, KY Hazardous Weather Outlook Webcast
(9 AM to 9 PM Mon-Fri)
[Fast]
[Dial-up]


UKAWC 1st Detectors/1st Responders Precision Weather Forecast For BOURBON County, Kentucky
(based on the NWS County Digital Forecast)

ISSUED AT 07:00 UTC ON SUNDAY DEC 17 2017
DAY SUNDAY
EDT 3HR 4A 5A 6A 7A 8A 9A 10A 11A NOON 1P 2P 3P 4P 5P 6P 7P
MAX/MIN -- -- -- -- 31° -- -- -- -- -- -- -- -- -- -- 45°
TEMP 31° 31° 31° 31° 31° 34° 36° 40° 41° 43° 45° 45° 43° 41° 40° 38°
SKY COVER 37% 48% 59% 69% 80% 80% 80% 80% 87% 93% 100% 100% 100% 100% 100% 100%
Clouds
DEW PT 27° 27° 29° 29° 29° 29° 29° 29° 29° 31° 32° 32° 34° 34° 34° 34°
RH 88% 88% 91% 91% 88% 81% 75% 66% 62% 60% 62% 62% 72% 76% 79% 85%
POP 12HR -- -- -- -- 3% -- -- -- -- -- -- -- -- -- -- --
RAIN/SNOW (liq.equ) -- -- -- -- 0.00in -- -- -- -- -- 0.00in -- -- -- -- --
SNOWFALL -- -- -- -- 0in -- -- -- -- -- 0in -- -- -- -- --
WIND SPEED(MPH) 6 6 6 6 6 6 6 7 7 7 8 7 6 5 5 5
WIND Gust(MPH) 7 7 7 7 7 7 7 7 9 10 10 8 7 7 7 6
WIND DIR S S S S S S S S S S S SW SW SW S S
DEW Frost Frost Frost Frost Frost Frost Frost -- -- -- -- -- -- -- -- --
HeatIndex 25 25 25 25 26 28 32 35 37 39 40 41 39 39 38 35
Snow Showers -- -- -- -- -- -- -- -- -- -- -- -- -- -- -- --
Rain Showers -- -- -- -- -- -- -- -- Chance Chance Chance Chance Likely Likely Chance Chance
Drizzle -- -- -- -- -- -- -- -- -- -- -- -- -- -- -- --
WIND CHILL 25° 25° 25° 25° 25° 29° 31° 35° 36° 39° 41° 41° 39° 38° 37° 35°
SPRAY COND
DRY COND
LIVESTOCK COLDSTRESS



DAY MONDAY TUESDAY WEDNESDAY THURSDAY FRIDAY SATURDAY
EDT 6HR 8P 9P 10P 11P MIDN 1A 2A 3A 4A 5A 6A 7A 8A 9A 10A 11A NOON 1P 2P 3P 5P 8P 11P 2A 5A 8A 11A 2P 5P 8P 2A 8A 2P 8P 2A 8A 2P 8P 2A 8A 2P 8P 2A 8A 2P 8P
MAX/MIN -- -- -- -- -- -- -- -- -- -- -- -- 36° -- -- -- -- -- -- -- 50° -- -- -- -- 41° -- -- 54° -- -- 31° 45° -- -- 31° 52° -- -- 38° 49° -- -- 31° 40° --
TEMP 41° 40° 38° 38° 36° 36° 36° 38° 38° 38° 38° 38° 38° 40° 41° 43° 45° 47° 49° 49° 50° 47° 45° 45° 43° 41° 47° 52° 54° 49° 40° 31° 43° 40° 31° 31° 49° 43° 41° 38° 49° 43° 36° 31° 38° 34°
SKY COVER 100% 99% 97% 96% 94% 93% 91% 91% 90% 90% 90% 89% 89% 89% 88% 88% 88% 87% 87% 86% 83% 79% 73% 66% 66% 66% 65% 64% 59% 54% 41% 39% 51% 48% 37% 41% 36% 53% 60% 85% 91% 92% 85% 83% 86% 85%
Clouds
DEW PT 36° 34° 34° 34° 34° 36° 36° 36° 38° 38° 38° 38° 38° 38° 40° 40° 41° 43° 43° 43° 41° 41° 40° 40° 40° 40° 41° 43° 40° 40° 34° 27° 27° 25° 25° 27° 36° 36° 38° 38° 40° 34° 29° 27° 27° 23°
RH 79% 82% 85% 88% 91% 96% 100% 96% 99% 95% 100% 99% 95% 95% 92% 88% 86% 86% 80% 76% 70% 79% 85% 82% 89% 96% 82% 68% 56% 74% 78% 85% 50% 56% 78% 81% 58% 76% 88% 100% 68% 67% 74% 81% 61% 63%
POP 12HR 60% -- -- -- -- -- -- -- -- -- -- -- 10% -- -- -- -- -- -- -- -- 11% -- -- -- 9% -- -- -- 7% -- 6% -- 23% -- 26% -- 3% -- 20% -- 35% -- 34% -- 39%
RAIN/SNOW (liq.equ) 0.06in -- -- -- -- -- 0.00in -- -- -- -- -- 0.00in -- -- -- -- -- 0.00in -- -- 0.00in -- 0.00in -- 0.00in -- 0.00in -- 0.00in -- -- -- -- -- -- -- -- -- -- -- -- -- -- -- --
SNOWFALL 0in -- -- -- -- -- 0in -- -- -- -- -- 0in -- -- -- -- -- 0in -- -- 0in -- 0in -- 0in -- 0in -- 0in -- -- -- -- -- -- -- -- -- -- -- -- -- -- -- --
WIND SPEED(MPH) 6 6 6 6 6 6 6 6 6 6 6 6 6 6 7 7 7 7 8 8 8 7 7 8 8 7 8 10 9 7 6 6 7 6 6 6 7 6 9 9 13 9 7 7 7 5
WIND DIR S S S S S SW SW SW SW SW SW SW SW SW SW SW SW SW SW SW SW SW SW SW SW SW SW W W W NW N NE E E E S S S SW SW W W NW W N
HeatIndex 38 35 34 33 32 32 32 33 33 34 33 33 34 35 37 40 45 47 49 49 50 47 40 40 38 36 47 52 54 49 35 26 40 35 26 26 49 40 36 32 49 38 30 25 34 31
Snow Showers -- -- -- -- -- -- -- -- -- -- -- -- -- -- -- -- -- -- -- -- -- -- -- -- -- -- -- -- -- -- -- -- -- -- -- -- -- -- -- -- -- -- Chance Chance -- Chance
Rain Showers -- -- -- -- -- -- -- -- -- -- -- -- -- -- -- -- -- -- -- -- -- -- -- -- -- -- -- -- -- -- -- -- Slight Chance Chance -- -- -- -- Chance Chance Chance Chance Chance -- Chance Chance
Drizzle -- -- -- -- -- -- Patchy Patchy Patchy Patchy Patchy Patchy -- -- -- -- -- -- -- -- -- -- -- -- -- -- -- -- -- -- -- -- -- -- -- -- -- -- -- -- -- -- -- -- -- --
WIND CHILL 37° 36° 34° 34° 31° 31° 31° 34° 34° 34° 34° 34° 34° 36° 36° 39° 41° -- -- -- -- -- 41° 41° 38° 36° -- -- -- -- 36° 25° 39° 36° 25° 25° -- 39° 35° 32° -- 38° 30° 25° 33° 30°
SPRAY COND
DRY COND
LIVESTOCK COLDSTRESS

Click on individual weather variable above in left-hand column (ie., TEMP, RH, QPF 12HR) to view state forecast maps






NWS 48 Hr. Forecast Maps,

Regional Hourly Observations For BOURBON County, Kentucky
Issued at 200 AM EST SUN DEC 17 2017
...CENTRAL KENTUCKY...
  
CITY           SKY/WX    TMP DP  RH WIND       PRES   REMARKS
MT STERLING*   PTCLDY    37  30  75 SW8       30.22F WCI  31          
FLEMING/MASON* CLOUDY    35  28  76 S6        30.22R WCI  30          
DANVILLE*      MOCLDY    37  30  75 S7        30.22F WCI  32          
LEXINGTON      PTCLDY    37  28  70 S9        30.20F WCI  30          
FRANKFORT      PTCLDY    38  27  64 S7        30.19S WCI  33          
LOUISVILLE     CLOUDY    43  29  57 S9        30.18F                  
LEBANON*         N/A     41  28  60 S7        30.21S                  
GLASGOW*       PTCLDY    40  30  66 S3        30.21S                  
BOWLING GREEN  PTCLDY    41  31  67 S6        30.22S                  


Current NOWCAST not available:
Nowcasts are not issued routinely during fair weather. Only when
precipitation or other significant weather is occuring in this county will these
forecasts be issued. Currently, there is no short term forecast in effect.


Fire Weather Forecast For BOURBON County, KY
Provided by the National Weather Service:

Issued at: Sun Dec 17 01:05:01 EST 2017


                      Today        Tonight      Sun          

CLOUD COVER           MClear       MClear       Cloudy       
PRECIP TYPE           NONE         NONE         showers      
CHANCE PRECIP (%)     0            0            50           
TEMP (24H TREND)      51 (+16)     31 (+3)      45           
RH % (24H TREND)      42 (-10)     89 (+8)      61           
20FTWND-VAL/AM(MPH)   SW 10 G21                 Lgt/Var      
20FTWND-RDG/PM(MPH)   SW 10 G21    SW  6        Lgt/Var      
PRECIP AMOUNT         0.00         0.00         0.06         
MIXING HGT(FT-AGL/MSL)3135                      1907         
TRANSPORT WND (MPH)   SW 25                     S 15         
VENT RATE (KT-FT)     71714                     32419        
DISPERSION            Good                      Marginal     
DSI                   STBL         STBL         STBL         
LAL                   1            1            1            
HAINES INDEX          3            4            3            
ADI EARLY             45 GEN GOOD  6 VERY POOR  13 GEN POOR  
ADI LATE              58 GEN GOOD  6 VERY POOR  20 GEN POOR  
MAX LVORI EARLY       4            4            4            
MAX LVORI LATE        2            5            4            

REMARKS...ADI IS ATMOSPHERIC DISPERSION INDEX BY LAVDAS.        
LVORI IS LOW VISIBILITY OCCURRENCE RISK INDEX.

.MONDAY...Mostly cloudy. Lows in the upper 30s. Highs in the
lower 50s. South winds around 5 mph. 
.TUESDAY...Mostly cloudy. Lows in the lower 40s. Highs in the mid
50s. Southwest winds around 5 mph. 
.WEDNESDAY...Partly cloudy. Lows in the lower 30s. Highs in the
upper 40s. Northeast winds around 5 mph. 
.THURSDAY...Partly cloudy. Lows in the lower 30s. Highs in the
mid 50s. South winds 5 to 10 mph. 
.FRIDAY...Mostly cloudy with a 50 percent chance of rain showers.
Lows around 40. Highs in the lower 50s. West winds 5 to 10 mph. 

SPC's Fire Weather Web Tool (Excellent!), SPC's Fire Weather Outlooks, NWS Fire Weather WEB, Fire Danger Class Map,
Keetch-Byram Drought Index, ROMAN Web, Haines Index ,
WFAS's 10-hr Dead Fuel Moist., WFAS's 100-hr Dead Fuel Moist., Probablity of Ignition, Visual blackness Map, Palmer Drought Index, HPC's Rainfall Forecast Maps


Hazardous Weather Outlook For BOURBON County, Kentucky
352 PM EST Sat Dec 16 2017 /252 PM CST Sat Dec 16 2017/

 DAY ONE  This Afternoon and Tonight

No hazardous weather is expected at this time.

 DAYS TWO THROUGH SEVEN  Sunday through Friday

The chance for a rain-snow mix is in the forecast for Friday night
into Saturday, but at this time, confidence on the exact timing
and location of any snow remains low. If you plan to travel over
the holiday weekend, stay tuned for later forecasts highlighting
the potential for active winter weather. 

 SPOTTER INFORMATION STATEMENT  

Spotter activation will not be needed.

Latest BOURBON County, Kentucky Watches, Warnings and Advisories.
Additional Drought Info.: UKAWC Drought Page, Kentucky Drought Watch


7-Day Forecast For BOURBON County, KY

OVERNIGHT
Mostly clear. Lows in the lower 30s. South winds 5 to 10 mph.

SUNDAY
Rain showers likely. Highs in the mid 40s. South winds 5 to 10 mph. Chance of showers 70 percent.

SUNDAY NIGHT
Cloudy. Patchy drizzle. Lows in the upper 30s. South winds around 5 mph.

MONDAY
Mostly cloudy. Highs in the lower 50s. Southwest winds 5 to 10 mph.

MONDAY NIGHT
Partly cloudy. Lows in the lower 40s. Southwest winds 5 to 10 mph.

TUESDAY
Partly cloudy. Highs in the mid 50s.

TUESDAY NIGHT
Partly cloudy. Lows in the lower 30s.

WEDNESDAY
Partly cloudy with a 40 percent chance of rain showers. Highs in the mid 40s.

WEDNESDAY NIGHT
Partly cloudy with a 40 percent chance of rain showers. Lows in the lower 30s.

THURSDAY
Partly cloudy. Highs in the lower 50s.

THURSDAY NIGHT
Partly cloudy with a 20 percent chance of rain showers. Lows in the upper 30s.

FRIDAY
Cloudy with a 50 percent chance of rain showers. Highs in the lower 50s.

FRIDAY NIGHT
Mostly cloudy with a 50 percent chance of rain showers and snow showers. Lows in the lower 30s.

SATURDAY
Mostly cloudy with a 40 percent chance of rain showers and snow showers. Highs around 40.

Ag Weather Center, Department of Biosystems & Agricultural Engineering, University of Kentucky